"Pseudo-MPEC" for P1168tL

Created 2020 Sep 18 11:07:39 UT using Find_Orb

Click here for an explanation of pseudo-MPECs

 
 Astrometry: 
     P1168tL  C2020 09 15keJS^DnI4(IZ/A8AstrometryiK=$rkwfsnWi/LrkvTO@xUA[$UDF51
     P1168tL  C2020 09 15ymgKelwVC)7ur!jUm@/v`eOo`0M.McvRNB)^eGgv_Vx)1EI@ud`JF51
     P1168tL  C2020 09 15YF4-C4sf.;IGq4(GN^yWpD[jtE*xXQ3redacted;?G0S')s6DC]$F51
     P1168tL  C2020 09 15nK,;yDo1n9l9gkCf#NyCvcP#FJmjG*n;VT0UR%f!s2n`WkL[t%XJF51
     P1168tL KC2020 09 16B.Mh2u2Y%ZN54_kA1v7xDR/5$D/^Yeaow6[1o_+PxPK=;!.mE`#5711
     P1168tL KC2020 09 16?GD#$X]Cs,t/h+$*Ec4C9::U;IHac%v('t_+,wN%)HhK.GUS0DPJ711
     P1168tL KC2020 09 16^EYSH'n1-Dn4s-s%*!_h#Mmet#r+GI/_Hh8po-[V+)D$7q*uLi=P711
     P1168tL  C2020 09 16p1;k44P57_t9Mf/vMD-YN+]?WA:)02Y[CO1=VFTo@mB`Vr4TYm(eF51
     P1168tL  C2020 09 16*GBLK6(_qK4w6Q-\_V,xKPp*wyI(kTpqDx0p#xm9)clickUhereOF51
     P1168tL  C2020 09 16hW+N0j[,`e*95fnZt+qo4tm\hv7qHWFXY69eQYIDn5l(/14(\]0QF51
     P1168tL  C2020 09 16Rx'iJl'FJ`7%BwO@k3MNx;VZyLjP%CWHm1:tXe4I]9kZB1KaxxivF51
     P1168tL  C2020 09 16ny0mKUC*RTSyfGMxfaGITl)Q#.8a[RUZ=H_LEj$ywW?D*qeEr4SdF51
     P1168tL  C2020 09 16*hvDgWPB7mDw?igwCTb84'],7q4A9:7\OgXg5#TF_,i#:`?StGjZF51
     P1168tL  C2020 09 16='+Q#xEu5'J#:kfor8=/F=HR-KGmkAljU/La:)9_XOA(R5NDR7DoF51
     P1168tL  C2020 09 16`QV1x#VxDB1H;%QTe/]`liut3'12Pqca]adm9cp5=[^2a5@y$fkmF51
     P1168tL  C2020 09 17;e[vPmLVg_qRexplanation,d;Vy28]DyMdYLhyq6:6q6fBN*'y6F51
     P1168tL  C2020 09 17hc+Db=\Fa5MKHS:GJ*a:UQZsH#!,^BLcMKKD-K+wR0E+$G/..Ic:F51
     P1168tL  C2020 09 17*6a7HE7DLTKwZo^_58d5Ci\SwjVa^`Q!iGFs5qJof.T@Dl+Yjt;CF51
     P1168tL  C2020 09 17K_Sfx:xo-Ug!is9K9HZFL?%mt9Ym_1a#dVd?s+@b9V3SXmg$@,]\F51

Station data:
(711) McDonald Observatory, Fort Davis  (N30.671481 W104.021500)  US/Texas.
   0.76-m f/3.0 reflector.
(F51) Pan-STARRS 1, Haleakala  (N20.707235 W156.255910)  US/Hawaii.
   Observers N. Primak, A. Schultz, S. Watters, J. Thiel, T. Goggia. Measurer
   PS1 Science Consortium. 1.8-m Ritchey-Chrétien + CCD.

Orbital elements:  P1168tL
   Perihelion 2020 Jul 28.389893 +/- 15.1 TT =  9:21:26 (JD 2459058.889893)
Epoch 2020 Sep 17.0 TT = JDT 2459109.5   Earth MOID: 0.9218   AutoNEOCP
M  12.89870952 +/- 3.3              (J2000 ecliptic)
n   0.25486429 +/- 0.0321           Peri.  294.76212 +/- 8
a   2.46375042 +/- 0.207            Node    64.20611 +/- 1.5
e   0.2837263 +/- 0.0616            Incl.   32.37196 +/- 0.7
P   3.87                   H 18.8   G  0.15   U 10.4  
q 1.76471953 +/- 0.0186    Q 3.16278131 +/- 0.449
From 19 observations 2020 Sept. 15-17; mean residual 0".15
Residuals in arcseconds: 
200915 F51  .06+  .09+    200916 F51  .00   .28+    200916 F51  .04+  .21+    
200915 F51  .02+  .06-    200916 F51  .04+  .18+    200917 F51  .04-  .05-    
200915 F51  .03+  .04-    200916 F51  .04-  .35+    200917 F51  .03+  .04-    
200915 F51  .01+  .01-    200916 F51  .03+  .27+    200917 F51  .05+  .03-    
200916 711  .16-  .17-    200916 F51  .08+  .31+    200917 F51  .03+  .02-    
200916 711  .08+  .41-    200916 F51  .11+  .18+    
200916 711  .15-  .19-    200916 F51  .05+  .27+    

Ephemerides (geocentric):
Date (UTC) HH   RA              Dec         delta   r     elong  mag " sig PA
---- -- -- --  -------------   -----------  ------ ------ -----  --- ---- ---
2020 09 18 11  04 20 41.390   -11 18 23.82  1.1791 1.8005 110.8 21.8 .723 132
2020 09 18 12  04 20 42.012   -11 18 10.19  1.1788 1.8005 110.8 21.8 .757 132
2020 09 18 13  04 20 42.629   -11 17 56.56  1.1785 1.8006 110.9 21.8 .792 132
2020 09 18 14  04 20 43.242   -11 17 42.91  1.1781 1.8006 110.9 21.8 .827 132
2020 09 18 15  04 20 43.851   -11 17 29.26  1.1778 1.8007 110.9 21.8 .864 132
2020 09 18 16  04 20 44.455   -11 17 15.59  1.1775 1.8007 111.0 21.8 .901 132
2020 09 18 17  04 20 45.055   -11 17 01.91  1.1772 1.8008 111.0 21.8 .939 131
2020 09 18 18  04 20 45.651   -11 16 48.22  1.1769 1.8009 111.0 21.8 .978 131
2020 09 18 19  04 20 46.242   -11 16 34.53  1.1766 1.8009 111.1 21.8 1.02 131
2020 09 18 20  04 20 46.828   -11 16 20.82  1.1763 1.8010 111.1 21.8 1.06 131
2020 09 18 21  04 20 47.411   -11 16 07.10  1.1760 1.8010 111.1 21.8 1.10 131
2020 09 18 22  04 20 47.989   -11 15 53.37  1.1756 1.8011 111.2 21.8 1.14 131
2020 09 18 23  04 20 48.562   -11 15 39.63  1.1753 1.8011 111.2 21.8 1.18 131
2020 09 19 00  04 20 49.131   -11 15 25.87  1.1750 1.8012 111.2 21.8 1.23 131
2020 09 19 01  04 20 49.696   -11 15 12.11  1.1747 1.8012 111.2 21.8 1.27 131
2020 09 19 02  04 20 50.256   -11 14 58.34  1.1744 1.8013 111.3 21.8 1.32 131
2020 09 19 03  04 20 50.812   -11 14 44.55  1.1741 1.8014 111.3 21.8 1.37 130
2020 09 19 04  04 20 51.363   -11 14 30.76  1.1738 1.8014 111.3 21.8 1.41 130
2020 09 19 05  04 20 51.910   -11 14 16.95  1.1734 1.8015 111.4 21.8 1.46 130
2020 09 19 06  04 20 52.453   -11 14 03.13  1.1731 1.8015 111.4 21.8 1.51 130
2020 09 19 07  04 20 52.991   -11 13 49.30  1.1728 1.8016 111.4 21.8 1.56 130
2020 09 19 08  04 20 53.524   -11 13 35.46  1.1725 1.8016 111.5 21.8 1.61 130
2020 09 19 09  04 20 54.054   -11 13 21.61  1.1722 1.8017 111.5 21.8 1.67 130
2020 09 19 10  04 20 54.579   -11 13 07.75  1.1719 1.8018 111.5 21.8 1.72 130
2020 09 19 11  04 20 55.099   -11 12 53.88  1.1716 1.8018 111.6 21.8 1.77 130
2020 09 19 12  04 20 55.615   -11 12 39.99  1.1713 1.8019 111.6 21.8 1.83 130
2020 09 19 13  04 20 56.126   -11 12 26.10  1.1709 1.8019 111.6 21.8 1.88 130
2020 09 19 14  04 20 56.633   -11 12 12.19  1.1706 1.8020 111.7 21.8 1.94 130
2020 09 19 15  04 20 57.136   -11 11 58.27  1.1703 1.8020 111.7 21.8 2.00 130
2020 09 19 16  04 20 57.634   -11 11 44.34  1.1700 1.8021 111.7 21.8 2.06 130
2020 09 19 17  04 20 58.128   -11 11 30.40  1.1697 1.8022 111.8 21.8 2.11 130
2020 09 19 18  04 20 58.617   -11 11 16.44  1.1694 1.8022 111.8 21.8 2.17 129
2020 09 19 19  04 20 59.102   -11 11 02.48  1.1691 1.8023 111.8 21.8 2.24 129
2020 09 19 20  04 20 59.582   -11 10 48.50  1.1688 1.8023 111.8 21.8 2.30 129
2020 09 19 21  04 21 00.058   -11 10 34.51  1.1684 1.8024 111.9 21.8 2.36 129
2020 09 19 22  04 21 00.529   -11 10 20.52  1.1681 1.8024 111.9 21.8 2.43 129
2020 09 19 23  04 21 00.996   -11 10 06.50  1.1678 1.8025 111.9 21.8 2.49 129
2020 09 20 00  04 21 01.459   -11 09 52.48  1.1675 1.8026 112.0 21.8 2.56 129
2020 09 20 01  04 21 01.917   -11 09 38.45  1.1672 1.8026 112.0 21.8 2.62 129
2020 09 20 02  04 21 02.370   -11 09 24.40  1.1669 1.8027 112.0 21.8 2.69 129
2020 09 20 03  04 21 02.819   -11 09 10.34  1.1666 1.8027 112.1 21.8 2.76 129
2020 09 20 04  04 21 03.264   -11 08 56.27  1.1663 1.8028 112.1 21.8 2.83 129
2020 09 20 05  04 21 03.704   -11 08 42.19  1.1660 1.8028 112.1 21.8 2.90 129
2020 09 20 06  04 21 04.139   -11 08 28.10  1.1656 1.8029 112.2 21.8 2.97 129
2020 09 20 07  04 21 04.571   -11 08 13.99  1.1653 1.8030 112.2 21.8 3.05 129
2020 09 20 08  04 21 04.997   -11 07 59.87  1.1650 1.8030 112.2 21.8 3.12 129
2020 09 20 09  04 21 05.419   -11 07 45.74  1.1647 1.8031 112.3 21.8 3.19 129
2020 09 20 10  04 21 05.837   -11 07 31.60  1.1644 1.8031 112.3 21.8 3.27 129